FW2825 Weather Reports


time (UTC)temp
C
wind
direction
speed
KPH
gust
KPH
rain 1hr
cm
rain 24hr
cm
rain mn
cm
humidity
%
barometer
mb
20210920043034 11 86 0.0 1.6 0.00 0.00 0.00 96 1024.9
20210920041519 11 86 0.0 0.0 0.00 0.00 0.00 96 1024.8
20210920034536 11 86 0.0 0.0 0.00 0.00 0.00 95 1024.6
20210920033009 11 86 0.0 0.0 0.00 0.00 0.00 95 1024.6
20210920031545 12 86 0.0 0.0 0.00 0.00 0.00 95 1024.5
20210920030126 12 86 0.0 0.0 0.00 0.00 0.00 95 1024.3
20210920021530 12 86 0.0 0.0 0.00 0.00 0.00 94 1024.0
20210920020052 12 86 0.0 1.6 0.00 0.00 0.00 94 1023.9
20210920014557 13 86 0.0 0.0 0.00 0.00 0.00 94 1023.6
20210920013057 13 86 0.0 0.0 0.00 0.00 0.00 93 1023.5
20210920010109 13 86 0.0 0.0 0.00 0.00 0.00 92 1023.3
20210920004651 14 86 0.0 0.0 0.00 0.00 0.00 91 1023.1
20210920003053 14 86 0.0 0.0 0.00 0.00 0.00 89 1022.9
20210920001536 15 86 0.0 0.0 0.00 0.00 0.00 89 1022.7
20210920000025 15 86 0.0 4.8 0.00 0.00 0.00 89 1022.5
20210919231607 16 86 0.0 3.2 0.00 0.00 0.00 87 1021.7
20210919230046 16 86 0.0 1.6 0.00 0.00 0.00 86 1021.6
20210919224630 17 86 0.0 0.0 0.00 0.00 0.00 83 1021.5
20210919223207 17 87 0.0 0.0 0.00 0.00 0.00 78 1021.3
20210919221711 18 87 0.0 0.0 0.00 0.00 0.00 76 1021.0
20210919220043 18 86 0.0 0.0 0.00 0.00 0.00 75 1021.0
20210919214553 19 86 0.0 0.0 0.00 0.00 0.00 71 1020.8
20210919213048 20 87 0.0 0.0 0.00 0.00 0.00 68 1020.7
20210919211609 20 87 0.0 1.6 0.00 0.00 0.00 61 1020.6
20210919210043 21 86 0.0 3.2 0.00 0.00 0.00 57 1020.5
20210919204610 21 87 0.0 4.8 0.00 0.00 0.00 53 1020.4
20210919203141 21 86 0.0 6.4 0.00 0.00 0.00 51 1020.5
20210919201606 22 86 1.6 6.4 0.00 0.00 0.00 51 1020.7
20210919200116 22 92 0.0 14.5 0.00 0.00 0.00 51 1020.8
20210919194751 21 338 4.8 9.7 0.00 0.00 0.00 51 1020.8
20210919193100 22 231 1.6 9.7 0.00 0.00 0.00 49 1020.8
20210919191635 22 61 3.2 12.9 0.00 0.00 0.00 47 1020.9
20210919190040 22 9 3.2 14.5 0.00 0.00 0.00 47 1021.0
20210919184543 22 25 1.6 12.9 0.00 0.00 0.00 47 1021.1
20210919183045 22 332 3.2 12.9 0.00 0.00 0.00 47 1021.1
20210919181647 22 329 8.0 19.3 0.00 0.00 0.00 50 1021.2
20210919180036 22 114 3.2 11.3 0.00 0.00 0.00 49 1021.3
20210919174614 22 5 4.8 17.7 0.00 0.00 0.00 48 1021.4
20210919173102 22 57 4.8 12.9 0.00 0.00 0.00 52 1021.5
20210919171557 22 95 3.2 17.7 0.00 0.00 0.00 54 1021.7
20210919170125 21 42 3.2 16.1 0.00 0.00 0.00 53 1021.9
20210919164624 21 306 8.0 24.1 0.00 0.00 0.00 52 1021.9
20210919163159 21 17 9.7 25.7 0.00 0.00 0.00 52 1021.9
20210919161615 20 335 8.0 22.5 0.00 0.00 0.00 53 1021.9
20210919160242 21 13 4.8 19.3 0.00 0.00 0.00 55 1022.1
20210919154625 20 355 8.0 17.7 0.00 0.00 0.00 53 1022.1
20210919153119 20 38 6.4 22.5 0.00 0.00 0.00 57 1022.2
20210919151610 20 35 6.4 19.3 0.00 0.00 0.00 58 1022.1
20210919150100 20 351 8.0 24.1 0.00 0.00 0.00 59 1022.1
20210919144537 20 68 4.8 14.5 0.00 0.00 0.00 61 1022.1
20210919143051 19 355 1.6 12.9 0.00 0.00 0.00 65 1022.0
20210919141705 20 10 0.0 12.9 0.00 0.00 0.00 66 1021.9
20210919140019 19 317 0.0 6.4 0.00 0.00 0.00 69 1021.7
20210919134545 18 317 0.0 6.4 0.00 0.00 0.00 72 1021.7
20210919131539 16 313 0.0 1.6 0.00 0.00 0.00 83 1021.5
20210919130040 15 313 0.0 1.6 0.00 0.00 0.00 89 1021.4
20210919124539 14 313 0.0 1.6 0.00 0.00 0.00 92 1021.4
20210919123235 13 313 0.0 0.0 0.00 0.00 0.00 93 1021.5
20210919121644 13 313 0.0 0.0 0.00 0.00 0.00 95 1021.3
20210919120155 12 323 0.0 0.0 0.00 0.00 0.00 95 1021.3
20210919114630 12 323 0.0 0.0 0.00 0.00 0.00 96 1021.3
20210919113052 11 323 0.0 0.0 0.00 0.00 0.00 95 1021.0
20210919111640 11 323 0.0 0.0 0.00 0.00 0.00 95 1020.7
20210919110117 11 323 0.0 0.0 0.00 0.00 0.00 94 1020.5
20210919104558 11 323 0.0 0.0 0.00 0.00 0.00 94 1020.3
20210919103117 11 323 0.0 0.0 0.00 0.00 0.00 94 1019.8
20210919101702 12 323 0.0 0.0 0.00 0.00 0.00 93 1019.6
20210919100032 12 323 0.0 0.0 0.00 0.00 0.00 93 1019.5
20210919094546 12 323 0.0 0.0 0.00 0.00 0.00 93 1019.3
20210919093105 12 323 0.0 0.0 0.00 0.00 0.00 92 1019.2
20210919091534 13 323 0.0 0.0 0.00 0.00 0.00 91 1019.1
20210919090020 13 323 0.0 0.0 0.00 0.00 0.00 91 1018.8
20210919084534 13 323 0.0 3.2 0.00 0.00 0.00 91 1018.6
20210919083024 14 323 0.0 0.0 0.00 0.00 0.00 91 1018.7
20210919081517 15 323 0.0 0.0 0.00 0.00 0.00 91 1018.6
20210919080032 15 323 0.0 1.6 0.00 0.00 0.00 90 1018.4
20210919074529 15 323 1.6 9.7 0.00 0.00 0.00 89 1018.2
20210919073025 15 332 3.2 8.0 0.00 0.00 0.00 92 1018.2
20210919071511 15 333 3.2 9.7 0.00 0.00 0.00 93 1018.1
20210919070004 15 333 0.0 3.2 0.00 0.00 0.00 93 1018.2
20210919064501 15 333 0.0 0.0 0.00 0.00 0.00 92 1018.2
20210919063130 16 333 0.0 0.0 0.00 0.00 0.00 91 1018.1
20210919061746 16 333 0.0 0.0 0.00 0.00 0.00 89 1018.1
20210919060131 17 333 0.0 0.0 0.00 0.00 0.00 88 1017.9
20210919054658 17 333 0.0 1.6 0.00 0.00 0.00 86 1018.0
20210919053058 18 333 0.0 0.0 0.00 0.00 0.00 83 1017.9
20210919051620 18 333 0.0 0.0 0.00 0.00 0.00 81 1017.8
20210919050057 19 333 0.0 6.4 0.00 0.00 0.00 79 1017.8
20210919044638 20 333 0.0 4.8 0.00 0.00 0.00 80 1017.8